Flag Weather past 2 weeks in Sacramento, California, U.S.A.

Now
60 °F

Clear.


Feels Like: 60 °F
Forecast: 54 / 64 °F
Wind: 5 mph from Southeast

Location: Sacramento Executive Airport

Current Time: Oct 31, 2014 at 6:03:41 AM

Latest Report: Oct 31, 2014 at 4:53 AM


Visibility: 10 mi

Pressure: 29.89 "Hg

Humidity: 86%

Dew point: 56 °F

Location of SacramentoLocation

Historic Weather in Sacramento — Graph

°F

Sacramento temperature yesterday

Maximum temperature yesterday: 80 °F (at 2:53 PM)
Minimum temperature yesterday: 53 °F (at 4:53 AM)
Average temperature yesterday: 64 °F

Past Weeks' High & Low Weather Summary

 TemperatureHumidityPressure
High81 °F (Oct 18, 4:53 PM)100% (Oct 24, 8:03 AM)30.16 "Hg (Oct 24, 8:03 AM)
Low44 °F (Oct 28, 6:53 AM)27% (Oct 26, 3:53 PM)29.82 "Hg (Oct 19, 5:53 PM)
Average63 °F65%29.99 "Hg
* Reported Oct 16 4:53 AM — Oct 31 4:53 AM, Sacramento, Weather by CustomWeather, © 2014

Note: Actual official high and low records may vary slightly from our data, if they occured in-between our weather recording intervals... More about our weather records

Advertising

Sacramento weather history for previous 24 hours

 ConditionsComfort  
Time TempWeatherWind HumidityBarometerVisibility
4:53 AM
Oct 31
60 °FClear.5 mph86%29.89 "Hg10 mi
3:53 AM60 °FClear.5 mph86%29.89 "Hg10 mi
2:53 AM61 °FClear.5 mph83%29.89 "Hg10 mi
1:53 AM62 °FClear.3 mph80%29.88 "Hg10 mi
12:53 AM62 °FClear.12 mph83%29.87 "Hg10 mi
11:53 PM
Oct 30
62 °FClear.7 mph83%29.87 "Hg10 mi
10:53 PM64 °FClear.14 mph75%29.86 "Hg10 mi
9:53 PM63 °FClear.9 mph75%29.85 "Hg10 mi
8:53 PM65 °FClear.7 mph63%29.86 "Hg10 mi
7:53 PM66 °FClear.3 mph56%29.86 "Hg10 mi
6:53 PM69 °FSunny.7 mph49%29.86 "Hg10 mi
5:53 PM73 °FSunny.5 mph43%29.85 "Hg10 mi
4:53 PM76 °FSunny.3 mph37%29.85 "Hg10 mi
3:53 PM77 °FSunny.5 mph35%29.86 "Hg10 mi
2:53 PM80 °FSunny.3 mph30%29.85 "Hg10 mi
1:53 PM78 °FSunny.6 mph31%29.88 "Hg10 mi
12:53 PM77 °FSunny.6 mph33%29.90 "Hg10 mi
11:53 AM73 °FSunny.No wind40%29.93 "Hg10 mi
10:53 AM69 °FSunny.No wind45%29.96 "Hg10 mi
9:53 AM64 °FSunny.No wind58%29.97 "Hg10 mi
8:53 AM58 °FSunny.No wind75%29.96 "Hg10 mi
7:53 AM53 °FClear.No wind83%29.95 "Hg10 mi
6:53 AM53 °FClear.No wind83%29.95 "Hg10 mi
Weather by CustomWeather, © 2014

See weather overviewHow to use our weather pages